www.pogodaiklimat.ru

Погода и климат >> Архив погоды >> Россия >> Приморский край >> Кавалерово


ПОГОДА в Кавалерово

  • Прогноз погоды в Кавалерово
  • Монитор погоды в Кавалерово

АРХИВ ПОГОДЫ в Кавалерово

Время (UTC), дата Ветер
(напр.,м/с)
 
Видим.   Явления Облачность Т
(С)
Тd
(С)
f
(%)
Тe
(С)
Тes
(С)
Комфортность P
(гПа)
Po
(гПа)
Тmin
(С)
Tmax
(С)
R
(мм)
R24
(мм)
S
(см)
12 14.03 З 1
{9}
50 км 3/3 600 м
[Sc]
-5.8 -8.0 84 -8 -8 1018.5 992.5
15 14.03 штиль 0 50 км 3/3 600 м
[Sc]
-9.4 -10.6 91 -10 -10 1020.1 993.3
18 14.03 штиль 0 50 км 2 балла -10.7 -12.2 89 -11 -11 1020.2 993.3
21 14.03 СЗ 1 50 км ясно -16.0 -17.9 85 -19 -19 1019.6 992.5 -16.1 14
00 15.03 штиль 0
{2}
50 км 10/0
[Ac As]
-6.1 -8.8 81 -7 -5 1018.1 992.1
03 15.03 В 1 50 км 9/3 600 м
[Cu hum Ac trans]
+1.2 -7.3 53 0 +1 1017.7 992.0
06 15.03 З 5 50 км 9 баллов +2.6 -6.5 51 -2 -2 1014.8 989.3
09 15.03 З 2 50 км 8/8 600 м
[Cb cap]
+1.1 -4.7 65 -2 -2 1014.9 989.3 +5.8
12 15.03 СЗ 1
{6}
50 км 10/10 600 м
[Sc]
-1.9 -3.7 87 -4 -4 1014.9 989.4
15 15.03 С 1 50 км в посл. час ливневой снег 4/4 600 м
[Sc]
-4.3 -5.4 92 -7 -7 1015.4 989.3
18 15.03 штиль 0 50 км 6 баллов -7.9 -9.0 92 -9 -9 1015.8 989.3
21 15.03 штиль 0 50 км 10/10 600 м
[Sc]
-6.5 -7.5 93 -7 -7 1015.7 989.7 -9.1 0.2 10
00 16.03 З 4
{4}
50 км 8/8 600 м
[Cb cap]
-0.6 -5.1 72 -6 -5 1015.5 990.1
03 16.03 З 4 50 км 9 баллов +0.5 -7.5 55 -4 -4 1016.4 990.7
06 16.03 СЗ 6
{10}
50 км 4 балла +1.8 -10.0 41 -3 -2 1014.9 989.3
09 16.03 СЗ 4
{10}
50 км 5/5 600 м
[Sc]
+0.5 -8.7 50 -4 -4 1015.0 989.7 +2.7
12 16.03 СЗ 1
{10}
50 км ясно -4.8 -7.9 79 -7 -7 1018.3 992.0
15 16.03 СЗ 1 50 км ясно -9.9 -11.4 89 -12 -12 1020.1 993.3
18 16.03 штиль 0 50 км ясно -10.5 -12.0 89 -11 -11 1020.2 993.3
21 16.03 штиль 0 50 км ясно -13.5 -14.9 89 -14 -14 1019.2 992.4 -13.6 6
00 17.03 З 1
{3}
50 км ясно -4.4 -11.1 59 -6 0 1018.7 992.8 -13.7
03 17.03 З 7 50 км 7 баллов +4.5 -12.0 29 -0 +1 1017.4 992.0
06 17.03 СЗ 6-10
{12}
50 км 5/3 1000 м
[Cu med, cong Ci fib]
+6.0 -11.7 27 +2 +4 1014.1 989.3
09 17.03 З 3
{11}
50 км 1/1 1000 м
[Cu hum]
+4.4 -13.0 27 +2 +2 1016.1 990.7 +6.1
12 17.03 СЗ 1
{12}
50 км ясно -5.5 -9.0 76 -8 -8 1018.3 992.0
15 17.03 З 1 50 км ясно -8.5 -10.9 83 -11 -11 1018.6 992.0
18 17.03 СЗ 1 50 км ясно -9.8 -11.5 87 -12 -12 1018.8 992.0
21 17.03 СЗ 1 50 км ясно -11.7 -13.3 88 -14 -14 1016.3 989.7 -11.8 2
00 18.03 штиль 0 50 км 1/0
[Ci sp]
-2.3 -9.5 58 -3 +5 1013.8 988.2 -12.1
03 18.03 ЮВ 3 50 км 10 баллов +8.8 -8.3 29 +7 +7 1008.8 984.0
06 18.03 З 6
{10}
50 км 2 балла +14.7 -9.4 18 +13 +15 1004.2 980.0
09 18.03 З 2
{13}
50 км 4/0
[Ci sp]
+10.1 -9.4 24 +9 +9 1003.2 979.0 +15.3
12 18.03 штиль 0
{13}
50 км ясно +0.5 -6.8 58 -0 -0 1006.8 981.3
15 18.03 СЗ 1 50 км ясно -4.6 -6.7 85 -7 -7 1008.7 982.7
18 18.03 З 1 50 км ясно -5.4 -7.1 88 -8 -8 1010.1 984.0
21 18.03 штиль 0 50 км ясно -5.1 -7.2 85 -6 -6 1009.9 984.2 -5.6 0
00 19.03 З 1
{3}
50 км 6/0
[Ci fib]
+4.6 -1.9 63 +4 +10 1010.9 986.1 -6.2
03 19.03 З 3 50 км 2 балла +13.2 -5.9 26 +12 +20 1011.2 986.7
06 19.03 З 3 50 км ясно +15.5 -8.7 18 +15 +20 1009.5 985.3
09 19.03 З 1 50 км 3/0
[Ci fib]
+8.6 -6.0 35 +9 +9 1010.1 985.3 +15.6
12 19.03 З 1
{8}
50 км ясно -0.8 -7.0 63 -2 -2 1013.8 988.0
15 19.03 СЗ 1 50 км 6 баллов -3.1 -6.1 80 -5 -5 1015.3 989.3
18 19.03 В 4 50 км 10 баллов -0.2 -2.7 83 -6 -6 1015.0 989.3
21 19.03 В 1 50 км 10/0 600 м
[As op]
-0.6 -2.5 87 -3 -3 1012.6 987.3 -3.3
00 20.03 Ю 1
{8}
50 км 10/0 300 м
[As op]
+0.5 -2.4 81 -1 0 1010.7 985.5
03 20.03 ЮВ 1 50 км 10 баллов +8.4 -1.1 51 +8 +8 1008.8 984.0
06 20.03 З 6-11
{14}
50 км 10/0
[Cs]
+17.4 -1.4 28 +17 +19 1005.0 981.3
09 20.03 З 3
{10}
50 км 10/0
[Cs]
+13.1 +0.1 41 +12 +12 1008.4 984.0 +17.4
12 20.03 ЮВ 6
{14}
50 км 10/0
[As op]
+5.6 -0.8 63 +1 +1 1010.0 985.3
15 20.03 В 6
{11}
50 км 10 баллов -0.8 -3.2 84 -8 -8 1015.1 989.3
18 20.03 В 3 4000 м слаб. снег 10 баллов -2.1 -3.7 89 -7 -7 1013.9 988.0
21 20.03 В 4 50 км {снег} 10/10 600 м
[Sc]
-2.2 -6.2 74 -8 -8 1011.1 985.6 -2.3 0.9 1
00 21.03 ЮВ 3
{11}
2000 м снег 10/10 300 м
[Frnb Ns]
-2.9 -4.2 91 -8 -8 1008.9 983.4 -3.2
03 21.03 ЮВ 4 2000 м снег 10 баллов -1.5 -5.0 77 -7 -7 1005.6 980.0
06 21.03 ЮВ 2 2000 м снег 10 баллов -2.3 -3.7 90 -6 -6 1002.9 977.3
09 21.03 В 2 4000 м слаб. снег 10 баллов -2.5 -4.4 87 -7 -7 1001.6 976.0 -1.4 6

 

Местоположение метеостанции Кавалерово (Приморский край, Россия): широта 44.25 долгота 135.00 высота над уровнем моря 206 м.

В архиве по умолчанию представлена погода в Кавалерово за последнюю неделю. Архивные данные за месяц целиком и за предыдущие месяцы, начиная с января 2011 года, Вы можете получить, выбрав интересующий диапазон дат из раскрывающегося списка и нажав кнопку "Ввод!".


*Определитесь, кто Вы:
робот инопланетянин человек

Внимание! Время в таблицах - всемирное. Для получения местного времени необходимо прибавить поправку, которая равна 10 ч.

Смотрите также архив погоды в соседних городах и на ближайших метеорологических станциях:

Погода в Богополе (Приморский край, Россия) (32 км)
Погода в Ольге (Приморский край, Россия) (61 км)
Погода в Рудной Пристани (Приморский край, Россия) (65 км)
Погода в Дальнегорске (Приморский край, Россия) (90 км)
Погода в Чугуевке (Приморский край, Россия) (96 км)
Погода в Лучегорске (Приморский край, Россия) (99 км)
Погода в Лазо (Приморский край, Россия) (135 км)
Погода в Мельничном (Приморский край, Россия) (139 км)
Погода в Малиново (Приморский край, Россия) (145 км)
Погода в Тернее (Приморский край, Россия) (152 км)

Пояснения к столбцам:

Ветер - указаны скорость ветра в м/с - средняя за 10 мин, порывы в срок и между сроками (в фигурных скобках) и направление, откуда дует ветер: С - северный, СВ - северо-восточный, В - восточный, ЮВ - юго-восточный, Ю - южный, ЮЗ - юго-западный, З - западный, СЗ - северо-западный.
Видимость - горизонтальная дальность видимости в метрах или километрах. При видимости от 1 до 10 км при отсутствии осадков обычно наблюдается дымка, при ухудшении видимости до 1 км и менее - туман. В сухую погоду видимость может ухудшаться дымом, пылью или мглою.
Явления - указаны атмосферные явления, наблюдавшиеся в срок или в последний час перед сроком; фигурными скобками обозначены явления, наблюдавшиеся между сроками (за 1-3 часа до срока); квадратными скобками обозначены град или гололедные отложения с указанием их диаметра в мм.
Облачность - указаны через наклонную черту общая и нижняя облачность в баллах и высота нижней границы облаков в метрах; квадратными скобками обозначены формы облаков: Ci - перистые, Cs - перисто-слоистые, Cc - перисто-кучевые, Ac - высококучевые, As - высокослоистые, Sc - слоисто-кучевые, Ns - слоисто-дождевые, Cu - кучевые, Cb - кучево-дождевые. Подробнее классификацию облаков см. в Атласе облаков (PDF).
T - Температура воздуха - температура, измеренная на высоте 2 м над землей.
Td - Температура точки росы - температура, при понижении до которой содержащийся в воздухе водяной пар достигнет насыщения.
f - Относительная влажность воздуха - влажноcть воздуха, измеренная на высоте 2 м над землей.
Te - Эффективная температура - температура, которую ощущает одетый по сезону человек в тени. Характеристика душности погоды. При расчете учитывается влияние влажности воздуха и скорости ветра на теплоощущения человека.
Tes - Эффективная температура на солнце - температура, которую ощущает человек, с поправкой на солнечный нагрев. Характеристика знойности погоды. Зависит от высоты солнца над горизонтом, облачности и скорости ветра. Ночью, в пасмурную погоду, а также при ветре 12 м/с и более поправка равна нулю.
P - Атмосферное давление - приведенное к уровню моря атмосферное давление.
Po - Атмосферное давление - измеренное на уровне метеостанции атмосферное давление.
Tmin - Минимальная температура - минимум температуры воздуха на высоте 2 м над землей.
Tmax - Максимальная температура - максимум температуры воздуха на высоте 2 м над землей.
R - Количество осадков - Количество выпавших осадков за период времени, мм. При наведении курсора мыши на число - период времени, за который выпало указанное количество осадков.
R24 - Количество осадков - Количество выпавших осадков за 24 часа, мм.
S - Снежный покров - Высота снежного покрова, см. При наведении курсора мыши на число - состояние снежного покрова и степень покрытия местности в баллах.